TRA9V EHAM-LEPA

Flight info

Callsign TRA9V
Flight time N/A
Altitude 23000
Route WOODY N872 CIV/N0452F350 DCT KOVIN DCT DUCRA DCT RESMI DCT DEKOD DCT DISAK DCT DIRMO DCT VALKU DCT ATSUP DCT MINSO DCT DEGOL DCT PPG DCT ALBER DCT GIR DCT NENDA DCT KUREG DCT LORES
Aircraft A21N/M-SBDE2E3GHIJ5M1P2RWXYZ/LB1D1G1

Departure

Time 2026-04-18 10:18
Airport Amsterdam Airport Schiphol (EHAM)

Arrival

Time N/A
Airport Palma de Mallorca Airport (LEPA)
Time Latitude Longitude Altitude Speed Heading
2026-04-18 09:29 52.30543 4.76809 19 ft 0 kts 294°
2026-04-18 10:09 52.30541 4.76818 20 ft 2 kts 294°
2026-04-18 10:10 52.30535 4.76840 20 ft 2 kts 294°
2026-04-18 10:10 52.30529 4.76862 20 ft 2 kts 294°
2026-04-18 10:10 52.30527 4.76886 20 ft 2 kts 251°
2026-04-18 10:10 52.30535 4.76907 20 ft 2 kts 214°
2026-04-18 10:11 52.30550 4.76915 20 ft 2 kts 175°
2026-04-18 10:11 52.30564 4.76909 20 ft 2 kts 170°
2026-04-18 10:11 52.30569 4.76908 20 ft 0 kts 174°
2026-04-18 10:15 52.30567 4.76909 20 ft 1 kts 156°
2026-04-18 10:15 52.30556 4.76920 20 ft 3 kts 151°
2026-04-18 10:15 52.30533 4.76942 20 ft 5 kts 149°
2026-04-18 10:16 52.30498 4.76976 20 ft 7 kts 148°
2026-04-18 10:16 52.30453 4.77022 20 ft 9 kts 146°
2026-04-18 10:16 52.30427 4.77107 20 ft 9 kts 77°
2026-04-18 10:16 52.30421 4.77209 20 ft 10 kts 136°
2026-04-18 10:17 52.30374 4.77299 20 ft 11 kts 119°
2026-04-18 10:17 52.30337 4.77381 20 ft 7 kts 155°
2026-04-18 10:17 52.30303 4.77347 20 ft 7 kts 238°
2026-04-18 10:17 52.30221 4.77133 20 ft 55 kts 238°
2026-04-18 10:18 52.29892 4.76275 20 ft 122 kts 238°
2026-04-18 10:18 52.29338 4.74844 52 ft 172 kts 240°
2026-04-18 10:18 52.28698 4.73202 645 ft 174 kts 239°
2026-04-18 10:18 52.28054 4.71554 1427 ft 172 kts 240°
2026-04-18 10:19 52.27430 4.69986 2239 ft 167 kts 232°
2026-04-18 10:19 52.26510 4.68898 2906 ft 170 kts 204°
2026-04-18 10:19 52.25311 4.68586 3385 ft 187 kts 181°
2026-04-18 10:19 52.23995 4.69150 3807 ft 208 kts 160°
2026-04-18 10:20 52.22652 4.70221 4248 ft 225 kts 157°
2026-04-18 10:20 52.21181 4.71442 4605 ft 249 kts 157°
2026-04-18 10:20 52.19591 4.72758 5105 ft 266 kts 157°
2026-04-18 10:20 52.17914 4.74066 5806 ft 272 kts 161°
2026-04-18 10:21 52.16142 4.75071 6658 ft 273 kts 168°
2026-04-18 10:21 52.14319 4.75818 7470 ft 274 kts 171°
2026-04-18 10:21 52.12471 4.76531 8267 ft 277 kts 171°
2026-04-18 10:21 52.10610 4.77245 9079 ft 279 kts 171°
2026-04-18 10:22 52.08736 4.77963 9857 ft 281 kts 171°
2026-04-18 10:22 52.06833 4.78695 10607 ft 284 kts 171°
2026-04-18 10:22 52.04877 4.79445 11032 ft 298 kts 171°
2026-04-18 10:22 52.02809 4.80239 11355 ft 315 kts 170°
2026-04-18 10:23 52.00612 4.81004 11643 ft 330 kts 176°
2026-04-18 10:23 51.98301 4.80887 11975 ft 339 kts 193°
2026-04-18 10:23 51.96081 4.79659 12547 ft 342 kts 207°
2026-04-18 10:23 51.93951 4.77992 13252 ft 343 kts 208°
2026-04-18 10:24 51.91797 4.76285 13902 ft 346 kts 208°
2026-04-18 10:24 51.89635 4.74583 14543 ft 349 kts 208°
2026-04-18 10:24 51.87445 4.72865 15069 ft 356 kts 208°
2026-04-18 10:24 51.85212 4.71119 15617 ft 360 kts 208°
2026-04-18 10:25 51.82962 4.69360 16233 ft 363 kts 208°
2026-04-18 10:25 51.80695 4.67592 16826 ft 366 kts 208°
2026-04-18 10:25 51.79160 4.66397 17223 ft 367 kts 208°
2026-04-18 10:25 51.77636 4.65210 17607 ft 369 kts 208°
2026-04-18 10:26 51.74549 4.62808 18355 ft 373 kts 208°
2026-04-18 10:26 51.71431 4.60390 19088 ft 376 kts 208°